Hourly Weather Roundup
Issued by NWS Central Illinois

Home | Current Version | Previous Version | Text Only | Print | Product List | Glossary On
Versions: 1 2 3 4 5 6 7 8 9 10 11 12 13 14 15 16 17 18 19 20 21 22 23 24 25 26 27 28 29 30 31 32 33 34 35 36 37 38 39 40 41 42 43 44 45 46 47 48 49 50
000
NZUS43 KILX 281010
HWRILX

AREA WEATHER ROUNDUP
NATIONAL WEATHER SERVICE, LINCOLN IL
400 AM CST SUN DEC 28 2014


CITY           SKY/WX    TMP DP  RH WIND       PRES   REMARKS
BLOOMINGTON    MOCLDY    26  22  85 W10       30.19R WCI  16
CHAMPAIGN      CLOUDY    30  25  81 W12       30.17S WCI  20
DECATUR        CLOUDY    29  24  82 NW12      30.19F WCI  19
FLORA          PTCLDY    32  28  84 N13G18    30.21S WCI  22
GALESBURG      CLEAR     21  19  90 W6        30.20S WCI  13
JACKSONVILLE   CLOUDY    31  25  77 NW6       30.22R WCI  25
LACON          PTCLDY    22  15  75 W6        30.20R WCI  15
LAWRENCEVILLE  CLOUDY    34  29  82 N7        30.20R WCI  28
LITCHFIELD     CLOUDY    30  24  78 NW12      30.21R WCI  20
$$


CITY           SKY/WX    TMP DP  RH WIND       PRES   REMARKS
LINCOLN        CLOUDY    29  24  80 NW3       30.22R
MACOMB         CLOUDY    28  23  83 W10       30.23S WCI  18
MATTOON        CLOUDY    30  26  85 NW13      30.18R WCI  20
MT CARMEL AP   CLOUDY    36  30  80 NW9       30.19R WCI  29
OLNEY-NOBLE AP CLOUDY    32  28  86 NW7       30.21R WCI  26
PARIS          CLOUDY    31  28  89 NW9       30.18R WCI  23
PEORIA         FAIR      26  18  71 NW6       30.20S WCI  19
PONTIAC        PTCLDY    26  22  84 W13       30.18R WCI  15
RANTOUL        CLOUDY    29  25  84 NW9       30.17R WCI  21
ROBINSON       CLOUDY    32  30  91 CALM      30.20R
SPRINGFIELD    CLOUDY    30  23  75 W8        30.22R WCI  22
TAYLORVILLE    CLOUDY    30  27  86 W6        30.21S WCI  24
$$

...REGIONAL REPORTS...


CITY           SKY/WX    TMP DP  RH WIND       PRES   REMARKS
CHICAGO O`HARE CLEAR     25  19  78 W10       30.12R WCI  15
KANKAKEE       CLOUDY    28  24  82 W10       30.16R WCI  19
MOLINE         CLEAR     20  16  84 W8        30.20S WCI  10
MOUNT VERNON   CLOUDY    34  25  69 N3        30.21S
PITTSFIELD     CLOUDY    30  24  78 W7        30.23S WCI  23
QUINCY         CLOUDY    27  21  78 NW7       30.22R WCI  19
ROCKFORD       CLEAR     21  16  81 W7        30.16S WCI  12
$$


CITY           SKY/WX    TMP DP  RH WIND       PRES   REMARKS
BURLINGTON     CLOUDY    26  20  77 W6        30.21R WCI  19
CEDAR RAPIDS   FAIR      14  12  92 W6        30.17F WCI   5
DES MOINES     CLEAR     17  13  84 S7        30.19F WCI   8
KIRKSVILLE     CLEAR     20  19  96 S3        30.21F
OTTUMWA        CLEAR     18  15  88 W3        30.20F
ST LOUIS       CLOUDY    33  25  72 W7        30.22S WCI  27
$$


CITY           SKY/WX    TMP DP  RH WIND       PRES   REMARKS
TERRE HAUTE    CLOUDY    32  27  81 NW6       30.17R WCI  26
EVANSVILLE     CLOUDY    37  32  82 N10       30.17S WCI  30
INDIANAPOLIS   CLOUDY    30  27  88 NW7       30.13R WCI  23
LAFAYETTE      CLOUDY    30  26  85 NW9       30.15R WCI  22
MADISON        CLEAR     20  14  77 SW3       30.11S
MILWAUKEE      PTCLDY    26  18  71 W10       30.09S WCI  16
$$




USA.gov is the U.S. government's official web portal to all federal, state and local government web resources and services.